This is the latest recevied weather packets stored in our database for station/object DB8NZ-11. If no packets are shown the sender has not sent any weather packets the latest 10 day(s).
| Time | Temp. | Humidity | Pressure | Rain* | Wind** | Luminosity | Snow |
|---|---|---|---|---|---|---|---|
| 1777836041 | 21.11° C | 39% | 1017.1 hPa | - | - | - | - |
| 1777835141 | 21.11° C | 39% | 1017 hPa | - | - | - | - |
| 1777834241 | 21.11° C | 39% | 1016.9 hPa | - | - | - | - |
| 1777833341 | 21.67° C | 38% | 1017 hPa | - | - | - | - |
| 1777832441 | 22.22° C | 38% | 1016.9 hPa | - | - | - | - |
| 1777831541 | 23.33° C | 38% | 1016.7 hPa | - | - | - | - |
| 1777830641 | 23.89° C | 36% | 1016.6 hPa | - | - | - | - |
| 1777829741 | 24.44° C | 33% | 1016.7 hPa | - | - | - | - |
| 1777828840 | 25° C | 31% | 1016.6 hPa | - | - | - | - |
| 1777827940 | 25.56° C | 29% | 1016.6 hPa | - | - | - | - |
| 1777827040 | 27.22° C | 27% | 1016.6 hPa | - | - | - | - |
| 1777826140 | 27.78° C | 26% | 1016.5 hPa | - | - | - | - |
| 1777825240 | 29.44° C | 25% | 1016.5 hPa | - | - | - | - |
| 1777824340 | 28.89° C | 25% | 1016.7 hPa | - | - | - | - |
| 1777823440 | 27.78° C | 26% | 1016.7 hPa | - | - | - | - |
| 1777822540 | 27.78° C | 26% | 1017 hPa | - | - | - | - |
| 1777821640 | 27.78° C | 26% | 1017 hPa | - | - | - | - |
| 1777820740 | 27.78° C | 25% | 1017.2 hPa | - | - | - | - |
| 1777819839 | 28.33° C | 25% | 1017.3 hPa | - | - | - | - |
| 1777818939 | 28.89° C | 24% | 1017.5 hPa | - | - | - | - |
| 1777818039 | 29.44° C | 23% | 1017.6 hPa | - | - | - | - |
| 1777817139 | 29.44° C | 24% | 1017.8 hPa | - | - | - | - |
| 1777816239 | 30.56° C | 22% | 1017.9 hPa | - | - | - | - |
| 1777815339 | 31.67° C | 21% | 1018 hPa | - | - | - | - |
| 1777814439 | 30.56° C | 22% | 1018.2 hPa | - | - | - | - |
* Rain since midnight (hover to see other rain measurements)
** Current wind speed in m/s (hover to see current wind gust speed)